DAL7312 KBZN-KMSP

Flight info

Callsign DAL7312
Flight time 1h 53m
Altitude 35000
Route BIL J16 DPR UFFDA TORGY4
Aircraft A321/M-SDE3FGHIRWY/LB1

Departure

Time 2026-05-07 19:24
Airport Bozeman Yellowstone International Airport (KBZN)

Arrival

Time 2026-05-07 21:18
Airport Minneapolis–Saint Paul International Airport / Wold–Chamberlain Field (KMSP)
Time Latitude Longitude Altitude Speed Heading
2026-05-07 18:42 45.77972 -111.16159 4481 ft 0 kts 226°
2026-05-07 19:00 45.77972 -111.16158 4481 ft 0 kts 226°
2026-05-07 19:10 45.77973 -111.16158 4481 ft 0 kts 226°
2026-05-07 19:13 45.77975 -111.16155 4481 ft 3 kts 226°
2026-05-07 19:13 45.77992 -111.16129 4481 ft 2 kts 226°
2026-05-07 19:14 45.78010 -111.16109 4481 ft 4 kts 184°
2026-05-07 19:14 45.78031 -111.16120 4481 ft 4 kts 137°
2026-05-07 19:14 45.78040 -111.16131 4483 ft 1 kts 136°
2026-05-07 19:14 45.78040 -111.16132 4481 ft 2 kts 136°
2026-05-07 19:17 45.78038 -111.16129 4481 ft 2 kts 136°
2026-05-07 19:17 45.78028 -111.16111 4484 ft 2 kts 122°
2026-05-07 19:17 45.78025 -111.16088 4481 ft 3 kts 93°
2026-05-07 19:18 45.78034 -111.16056 4481 ft 4 kts 63°
2026-05-07 19:18 45.78041 -111.16006 4481 ft 6 kts 99°
2026-05-07 19:18 45.78013 -111.15951 4481 ft 7 kts 133°
2026-05-07 19:18 45.77973 -111.15894 4484 ft 9 kts 136°
2026-05-07 19:19 45.77924 -111.15828 4485 ft 10 kts 137°
2026-05-07 19:19 45.77868 -111.15749 4481 ft 12 kts 135°
2026-05-07 19:19 45.77803 -111.15657 4482 ft 14 kts 136°
2026-05-07 19:19 45.77728 -111.15554 4481 ft 16 kts 136°
2026-05-07 19:20 45.77644 -111.15439 4482 ft 18 kts 135°
2026-05-07 19:20 45.77553 -111.15310 4484 ft 19 kts 135°
2026-05-07 19:20 45.77457 -111.15178 4482 ft 19 kts 136°
2026-05-07 19:20 45.77364 -111.15049 4483 ft 19 kts 136°
2026-05-07 19:21 45.77271 -111.14920 4483 ft 19 kts 135°
2026-05-07 19:21 45.77178 -111.14790 4484 ft 19 kts 136°
2026-05-07 19:21 45.77084 -111.14662 4483 ft 18 kts 136°
2026-05-07 19:21 45.76994 -111.14532 4481 ft 18 kts 135°
2026-05-07 19:22 45.76909 -111.14413 4482 ft 16 kts 135°
2026-05-07 19:22 45.76857 -111.14321 4481 ft 9 kts 102°
2026-05-07 19:22 45.76886 -111.14249 4481 ft 9 kts 47°
2026-05-07 19:22 45.76929 -111.14185 4482 ft 9 kts 45°
2026-05-07 19:23 45.76980 -111.14129 4483 ft 8 kts 12°
2026-05-07 19:23 45.77026 -111.14169 4486 ft 8 kts 315°
2026-05-07 19:23 45.77087 -111.14253 4480 ft 24 kts 316°
2026-05-07 19:23 45.77316 -111.14569 4484 ft 77 kts 316°
2026-05-07 19:24 45.77871 -111.15338 4481 ft 142 kts 316°
2026-05-07 19:24 45.78690 -111.16488 4677 ft 176 kts 314°
2026-05-07 19:24 45.79644 -111.17611 5406 ft 180 kts 338°
2026-05-07 19:24 45.80877 -111.17633 6251 ft 187 kts 24°
2026-05-07 19:25 45.81851 -111.16327 6798 ft 201 kts 53°
2026-05-07 19:25 45.82324 -111.14368 6945 ft 219 kts 84°
2026-05-07 19:25 45.82396 -111.12113 7092 ft 233 kts 87°
2026-05-07 19:25 45.82420 -111.09690 7250 ft 254 kts 88°
2026-05-07 19:26 45.82431 -111.07027 7474 ft 279 kts 88°
2026-05-07 19:26 45.82436 -111.04168 7945 ft 292 kts 89°
2026-05-07 19:26 45.82436 -111.01233 8618 ft 297 kts 89°
2026-05-07 19:26 45.82435 -110.98233 9341 ft 302 kts 89°
2026-05-07 19:27 45.82439 -110.95205 9980 ft 306 kts 89°
2026-05-07 19:27 45.82449 -110.92070 10298 ft 326 kts 89°
2026-05-07 19:27 45.82461 -110.88710 10501 ft 347 kts 88°
2026-05-07 19:27 45.82474 -110.85162 10849 ft 361 kts 89°
2026-05-07 19:28 45.82483 -110.81537 11427 ft 366 kts 88°
2026-05-07 19:28 45.82489 -110.79116 11861 ft 368 kts 88°
2026-05-07 19:28 45.82498 -110.75423 12505 ft 372 kts 88°
2026-05-07 19:28 45.82508 -110.71705 13153 ft 375 kts 88°
2026-05-07 19:29 45.82517 -110.66712 13953 ft 380 kts 88°
2026-05-07 19:29 45.82519 -110.64148 14366 ft 383 kts 88°
2026-05-07 19:29 45.82520 -110.60361 14934 ft 387 kts 88°
2026-05-07 19:29 45.82518 -110.56486 15512 ft 390 kts 88°
2026-05-07 19:30 45.82515 -110.52583 16049 ft 394 kts 88°
2026-05-07 19:30 45.82510 -110.48634 16592 ft 398 kts 88°
2026-05-07 19:30 45.82504 -110.44652 17121 ft 401 kts 88°
2026-05-07 19:30 45.82501 -110.40632 17639 ft 405 kts 88°
2026-05-07 19:31 45.82498 -110.36585 18140 ft 408 kts 88°
2026-05-07 19:31 45.82492 -110.32488 18622 ft 411 kts 88°
2026-05-07 19:31 45.82483 -110.28373 19093 ft 414 kts 88°
2026-05-07 19:31 45.82472 -110.24227 19554 ft 418 kts 88°
2026-05-07 19:32 45.82459 -110.20053 20008 ft 420 kts 88°
2026-05-07 19:32 45.82444 -110.15847 20462 ft 424 kts 88°
2026-05-07 19:32 45.82426 -110.11608 20893 ft 426 kts 88°
2026-05-07 19:32 45.82406 -110.07340 21320 ft 429 kts 88°
2026-05-07 19:33 45.82387 -110.03048 21741 ft 432 kts 87°
2026-05-07 19:33 45.82369 -109.98728 22158 ft 435 kts 88°
2026-05-07 19:33 45.82349 -109.94379 22569 ft 438 kts 87°
2026-05-07 19:33 45.82325 -109.90004 22976 ft 440 kts 87°
2026-05-07 19:34 45.82295 -109.85596 23360 ft 443 kts 87°
2026-05-07 19:34 45.82264 -109.81170 23742 ft 446 kts 87°
2026-05-07 19:34 45.82233 -109.76711 24120 ft 448 kts 87°
2026-05-07 19:34 45.82201 -109.72226 24480 ft 451 kts 87°
2026-05-07 19:35 45.82167 -109.67713 24825 ft 454 kts 87°
2026-05-07 19:35 45.82131 -109.63167 25159 ft 457 kts 87°
2026-05-07 19:35 45.82092 -109.58606 25494 ft 460 kts 87°
2026-05-07 19:35 45.82051 -109.54006 25810 ft 462 kts 86°
2026-05-07 19:36 45.82009 -109.49439 26081 ft 466 kts 86°
2026-05-07 19:36 45.81965 -109.44785 26378 ft 468 kts 86°
2026-05-07 19:36 45.81917 -109.40097 26688 ft 471 kts 86°
2026-05-07 19:36 45.81867 -109.35390 26992 ft 473 kts 86°
2026-05-07 19:37 45.81817 -109.30664 27295 ft 475 kts 86°
2026-05-07 19:37 45.81766 -109.25915 27586 ft 478 kts 86°
2026-05-07 19:37 45.81714 -109.21144 27860 ft 480 kts 86°
2026-05-07 19:37 45.81660 -109.16338 28133 ft 483 kts 86°
2026-05-07 19:38 45.81602 -109.11511 28397 ft 485 kts 86°
2026-05-07 19:38 45.81537 -109.06658 28665 ft 487 kts 86°
2026-05-07 19:38 45.81466 -109.01795 28924 ft 489 kts 87°
2026-05-07 19:38 45.81394 -108.96924 29188 ft 490 kts 87°
2026-05-07 19:39 45.81323 -108.92018 29443 ft 493 kts 87°
2026-05-07 19:39 45.81253 -108.87170 29699 ft 494 kts 87°
2026-05-07 19:39 45.81179 -108.82227 29958 ft 496 kts 87°
2026-05-07 19:39 45.81105 -108.77285 30288 ft 496 kts 87°
2026-05-07 19:40 45.81028 -108.72341 30655 ft 494 kts 87°
2026-05-07 19:40 45.80945 -108.67419 30998 ft 494 kts 87°
2026-05-07 19:40 45.80844 -108.62505 31329 ft 494 kts 88°
2026-05-07 19:40 45.80639 -108.57577 31665 ft 494 kts 90°
2026-05-07 19:41 45.80317 -108.52673 32003 ft 495 kts 92°
2026-05-07 19:41 45.79910 -108.47771 32321 ft 495 kts 93°
2026-05-07 19:41 45.79472 -108.42944 32636 ft 495 kts 94°
2026-05-07 19:41 45.79026 -108.38001 32969 ft 494 kts 93°
2026-05-07 19:42 45.78609 -108.33181 33293 ft 493 kts 92°
2026-05-07 19:42 45.78216 -108.28301 33584 ft 493 kts 92°
2026-05-07 19:42 45.77843 -108.23424 33892 ft 492 kts 91°
2026-05-07 19:42 45.77478 -108.18553 34173 ft 492 kts 91°
2026-05-07 19:43 45.77113 -108.13692 34456 ft 491 kts 91°
2026-05-07 19:43 45.76744 -108.08833 34733 ft 491 kts 91°
2026-05-07 19:43 45.76368 -108.03971 34938 ft 491 kts 92°
2026-05-07 19:43 45.75982 -107.99116 34991 ft 488 kts 92°
2026-05-07 19:44 45.75202 -107.89494 34973 ft 486 kts 92°
2026-05-07 19:44 45.74416 -107.79894 34971 ft 485 kts 92°
2026-05-07 19:45 45.73627 -107.70354 34964 ft 485 kts 92°
2026-05-07 19:45 45.72830 -107.60771 34961 ft 484 kts 92°
2026-05-07 19:46 45.72023 -107.51184 34956 ft 485 kts 92°
2026-05-07 19:46 45.71209 -107.41616 34957 ft 485 kts 92°
2026-05-07 19:47 45.70393 -107.32051 34954 ft 484 kts 92°
2026-05-07 19:47 45.69566 -107.22479 34960 ft 484 kts 93°
2026-05-07 19:48 45.68727 -107.12923 34960 ft 484 kts 93°
2026-05-07 19:48 45.67890 -107.03381 34959 ft 484 kts 93°
2026-05-07 19:49 45.67050 -106.93834 34962 ft 483 kts 93°
2026-05-07 19:49 45.66188 -106.84311 34967 ft 483 kts 94°
2026-05-07 19:50 45.65323 -106.74859 34971 ft 483 kts 94°
2026-05-07 19:50 45.64456 -106.65360 34972 ft 482 kts 94°
2026-05-07 19:51 45.63577 -106.55877 34970 ft 481 kts 95°
2026-05-07 19:51 45.62686 -106.46414 34968 ft 480 kts 95°
2026-05-07 19:52 45.61796 -106.36965 34967 ft 479 kts 95°
2026-05-07 19:52 45.60907 -106.27536 34968 ft 478 kts 95°
2026-05-07 19:53 45.60009 -106.18127 34964 ft 478 kts 95°
2026-05-07 19:53 45.59100 -106.08733 34962 ft 477 kts 95°
2026-05-07 19:54 45.58184 -105.99354 34956 ft 477 kts 95°
2026-05-07 19:54 45.57261 -105.89979 34955 ft 477 kts 96°
2026-05-07 19:55 45.56334 -105.80675 34954 ft 476 kts 96°
2026-05-07 19:55 45.55391 -105.71316 34951 ft 476 kts 96°
2026-05-07 19:56 45.54450 -105.61963 34949 ft 476 kts 96°
2026-05-07 19:56 45.53502 -105.52612 34944 ft 476 kts 96°
2026-05-07 19:57 45.52537 -105.43266 34938 ft 476 kts 96°
2026-05-07 19:57 45.51566 -105.33931 34938 ft 476 kts 96°
2026-05-07 19:58 45.50593 -105.24577 34944 ft 477 kts 96°
2026-05-07 19:58 45.49612 -105.15232 34941 ft 476 kts 96°
2026-05-07 19:59 45.48625 -105.05900 34940 ft 476 kts 96°
2026-05-07 19:59 45.47627 -104.96579 34936 ft 476 kts 96°
2026-05-07 20:00 45.46615 -104.87256 34935 ft 476 kts 97°
2026-05-07 20:00 45.45603 -104.78007 34938 ft 475 kts 97°
2026-05-07 20:01 45.44582 -104.68714 34936 ft 475 kts 97°
2026-05-07 20:01 45.43563 -104.59428 34941 ft 474 kts 97°
2026-05-07 20:02 45.42536 -104.50157 34934 ft 474 kts 97°
2026-05-07 20:02 45.41501 -104.40896 34935 ft 474 kts 97°
2026-05-07 20:03 45.40455 -104.31635 34934 ft 474 kts 97°
2026-05-07 20:03 45.39401 -104.22385 34936 ft 474 kts 97°
2026-05-07 20:04 45.38341 -104.13144 34929 ft 473 kts 97°
2026-05-07 20:04 45.37280 -104.03896 34926 ft 473 kts 97°
2026-05-07 20:05 45.36198 -103.94650 34923 ft 474 kts 97°
2026-05-07 20:05 45.35121 -103.85472 34924 ft 473 kts 98°
2026-05-07 20:06 45.34028 -103.76245 34924 ft 473 kts 98°
2026-05-07 20:06 45.32928 -103.67030 34915 ft 473 kts 98°
2026-05-07 20:07 45.31824 -103.57804 34911 ft 473 kts 98°
2026-05-07 20:07 45.30720 -103.48583 34906 ft 474 kts 98°
2026-05-07 20:08 45.29596 -103.39343 34906 ft 474 kts 98°
2026-05-07 20:08 45.28468 -103.30126 34902 ft 474 kts 98°
2026-05-07 20:09 45.27330 -103.20898 34902 ft 475 kts 98°
2026-05-07 20:10 45.25606 -103.07046 34906 ft 476 kts 98°
2026-05-07 20:10 45.24448 -102.97794 34904 ft 476 kts 98°
2026-05-07 20:11 45.23283 -102.88598 34909 ft 476 kts 98°
2026-05-07 20:11 45.22106 -102.79338 34907 ft 477 kts 98°
2026-05-07 20:12 45.20926 -102.70078 34906 ft 477 kts 98°
2026-05-07 20:12 45.19730 -102.60800 34907 ft 477 kts 98°
2026-05-07 20:13 45.18523 -102.51544 34907 ft 477 kts 98°
2026-05-07 20:13 45.17313 -102.42270 34909 ft 478 kts 98°
2026-05-07 20:14 45.16111 -102.33071 34910 ft 478 kts 98°
2026-05-07 20:14 45.14893 -102.23810 34914 ft 478 kts 98°
2026-05-07 20:15 45.13664 -102.14550 34914 ft 478 kts 98°
2026-05-07 20:15 45.12416 -102.05292 34912 ft 478 kts 98°
2026-05-07 20:16 45.11374 -101.97602 34914 ft 479 kts 98°
2026-05-07 20:16 45.10119 -101.88335 34910 ft 480 kts 98°
2026-05-07 20:17 45.08858 -101.79046 34909 ft 481 kts 98°
2026-05-07 20:17 45.07594 -101.69734 34913 ft 481 kts 97°
2026-05-07 20:18 45.06718 -101.60377 34916 ft 479 kts 92°
2026-05-07 20:18 45.06136 -101.50981 34916 ft 479 kts 91°
2026-05-07 20:19 45.05496 -101.41650 34911 ft 480 kts 92°
2026-05-07 20:19 45.04725 -101.32254 34907 ft 481 kts 93°
2026-05-07 20:20 45.03922 -101.22871 34908 ft 481 kts 93°
2026-05-07 20:20 45.03133 -101.13476 34903 ft 481 kts 93°
2026-05-07 20:21 45.02355 -101.04083 34899 ft 481 kts 93°
2026-05-07 20:21 45.01561 -100.94671 34897 ft 482 kts 93°
2026-05-07 20:22 45.00767 -100.85331 34898 ft 482 kts 93°
2026-05-07 20:22 44.99956 -100.75911 34896 ft 483 kts 93°
2026-05-07 20:23 44.99131 -100.66484 34899 ft 483 kts 93°
2026-05-07 20:23 44.98304 -100.57054 34898 ft 483 kts 93°
2026-05-07 20:24 44.97465 -100.47623 34898 ft 484 kts 93°
2026-05-07 20:24 44.96620 -100.38191 34901 ft 484 kts 93°
2026-05-07 20:25 44.95776 -100.28812 34904 ft 484 kts 93°
2026-05-07 20:25 44.94911 -100.19383 34904 ft 485 kts 93°
2026-05-07 20:26 44.94038 -100.09934 34904 ft 485 kts 93°
2026-05-07 20:26 44.93163 -100.00480 34905 ft 486 kts 94°
2026-05-07 20:27 44.92275 -99.91018 34900 ft 487 kts 93°
2026-05-07 20:27 44.91378 -99.81533 34900 ft 488 kts 93°
2026-05-07 20:28 44.90466 -99.72043 34900 ft 489 kts 93°
2026-05-07 20:28 44.89552 -99.62539 34900 ft 489 kts 93°
2026-05-07 20:29 44.88628 -99.53020 34903 ft 490 kts 93°
2026-05-07 20:29 44.87692 -99.43506 34905 ft 490 kts 93°
2026-05-07 20:30 44.86745 -99.33974 34911 ft 491 kts 94°
2026-05-07 20:30 44.85794 -99.24441 34910 ft 491 kts 93°
2026-05-07 20:31 44.84844 -99.14972 34908 ft 491 kts 94°
2026-05-07 20:31 44.83879 -99.05439 34910 ft 492 kts 93°
2026-05-07 20:32 44.82908 -98.95891 34907 ft 492 kts 94°
2026-05-07 20:32 44.81924 -98.86351 34906 ft 493 kts 94°
2026-05-07 20:33 44.80919 -98.76802 34907 ft 493 kts 94°
2026-05-07 20:33 44.79911 -98.67246 34905 ft 493 kts 94°
2026-05-07 20:34 44.78904 -98.57697 34905 ft 493 kts 94°
2026-05-07 20:34 44.77883 -98.48137 34906 ft 494 kts 94°
2026-05-07 20:35 44.76849 -98.38582 34907 ft 494 kts 94°
2026-05-07 20:35 44.75811 -98.29019 34907 ft 495 kts 94°
2026-05-07 20:36 44.74765 -98.19441 34906 ft 496 kts 94°
2026-05-07 20:36 44.73714 -98.09844 34909 ft 496 kts 94°
2026-05-07 20:37 44.72652 -98.00265 34909 ft 496 kts 94°
2026-05-07 20:37 44.71571 -97.90682 34907 ft 496 kts 94°
2026-05-07 20:38 44.70490 -97.81099 34908 ft 497 kts 94°
2026-05-07 20:38 44.69399 -97.71498 34908 ft 497 kts 94°
2026-05-07 20:39 44.68304 -97.61965 34909 ft 497 kts 94°
2026-05-07 20:39 44.67195 -97.52374 34910 ft 498 kts 94°
2026-05-07 20:40 44.66082 -97.42775 34912 ft 497 kts 95°
2026-05-07 20:40 44.65002 -97.33587 34908 ft 498 kts 95°
2026-05-07 20:41 44.63836 -97.23771 34909 ft 498 kts 95°
2026-05-07 20:41 44.62692 -97.14164 34915 ft 498 kts 95°
2026-05-07 20:42 44.61545 -97.04556 34919 ft 499 kts 95°
2026-05-07 20:42 44.60390 -96.94959 34920 ft 499 kts 95°
2026-05-07 20:43 44.59217 -96.85358 34923 ft 499 kts 95°
2026-05-07 20:43 44.58038 -96.75761 34921 ft 500 kts 95°
2026-05-07 20:44 44.56849 -96.66145 34918 ft 500 kts 95°
2026-05-07 20:44 44.55649 -96.56536 34914 ft 500 kts 95°
2026-05-07 20:45 44.54436 -96.46922 34914 ft 501 kts 95°
2026-05-07 20:45 44.53233 -96.37364 34915 ft 501 kts 95°
2026-05-07 20:46 44.52023 -96.27737 34915 ft 502 kts 95°
2026-05-07 20:46 44.50786 -96.18093 34912 ft 503 kts 95°
2026-05-07 20:47 44.49615 -96.08440 34907 ft 500 kts 90°
2026-05-07 20:47 44.49208 -95.98758 34908 ft 498 kts 87°
2026-05-07 20:48 44.48828 -95.89055 34907 ft 498 kts 88°
2026-05-07 20:48 44.48439 -95.79427 34908 ft 499 kts 88°
2026-05-07 20:49 44.48033 -95.69725 34909 ft 499 kts 88°
2026-05-07 20:49 44.47621 -95.60024 34910 ft 499 kts 88°
2026-05-07 20:50 44.47203 -95.50325 34912 ft 499 kts 88°
2026-05-07 20:50 44.46990 -95.45465 34805 ft 505 kts 88°
2026-05-07 20:50 44.46776 -95.40499 33824 ft 518 kts 88°
2026-05-07 20:50 44.46555 -95.35412 32851 ft 524 kts 88°
2026-05-07 20:51 44.46322 -95.30369 32444 ft 515 kts 88°
2026-05-07 20:51 44.46086 -95.25375 31750 ft 515 kts 88°
2026-05-07 20:51 44.46054 -95.20408 31160 ft 504 kts 79°
2026-05-07 20:51 44.46532 -95.15616 30717 ft 488 kts 69°
2026-05-07 20:52 44.47444 -95.11154 30489 ft 468 kts 64°
2026-05-07 20:52 44.48441 -95.06872 29546 ft 457 kts 63°
2026-05-07 20:52 44.49426 -95.02653 29037 ft 453 kts 64°
2026-05-07 20:52 44.50403 -94.98475 28519 ft 449 kts 64°
2026-05-07 20:53 44.51369 -94.94330 28029 ft 446 kts 64°
2026-05-07 20:53 44.52324 -94.90221 27539 ft 442 kts 64°
2026-05-07 20:53 44.53256 -94.86201 27061 ft 438 kts 65°
2026-05-07 20:53 44.54187 -94.82162 26578 ft 434 kts 65°
2026-05-07 20:54 44.55108 -94.78148 26112 ft 430 kts 65°
2026-05-07 20:54 44.56015 -94.74177 25647 ft 425 kts 65°
2026-05-07 20:54 44.56912 -94.70250 25209 ft 421 kts 65°
2026-05-07 20:54 44.57802 -94.66357 24777 ft 416 kts 65°
2026-05-07 20:55 44.58678 -94.62521 24337 ft 411 kts 65°
2026-05-07 20:55 44.59546 -94.58718 23913 ft 406 kts 65°
2026-05-07 20:55 44.60400 -94.54966 23492 ft 402 kts 66°
2026-05-07 20:55 44.61246 -94.51253 23076 ft 397 kts 66°
2026-05-07 20:56 44.62083 -94.47579 22677 ft 393 kts 66°
2026-05-07 20:56 44.62909 -94.43945 22258 ft 389 kts 66°
2026-05-07 20:56 44.63724 -94.40340 21856 ft 385 kts 66°
2026-05-07 20:56 44.64529 -94.36764 21434 ft 382 kts 66°
2026-05-07 20:57 44.65325 -94.33221 21016 ft 379 kts 66°
2026-05-07 20:57 44.66104 -94.29757 20596 ft 376 kts 67°
2026-05-07 20:57 44.66899 -94.26218 20158 ft 374 kts 67°
2026-05-07 20:57 44.67669 -94.22791 19738 ft 371 kts 67°
2026-05-07 20:58 44.68445 -94.19340 19312 ft 369 kts 67°
2026-05-07 20:58 44.69215 -94.15920 18897 ft 366 kts 68°
2026-05-07 20:58 44.69982 -94.12521 18476 ft 364 kts 68°
2026-05-07 20:58 44.70744 -94.09143 18053 ft 361 kts 68°
2026-05-07 20:59 44.71500 -94.05791 17679 ft 357 kts 68°
2026-05-07 20:59 44.72247 -94.02472 17282 ft 355 kts 68°
2026-05-07 20:59 44.72984 -93.99177 16898 ft 352 kts 68°
2026-05-07 20:59 44.73712 -93.95901 16492 ft 350 kts 68°
2026-05-07 21:00 44.74436 -93.92636 16086 ft 348 kts 68°
2026-05-07 21:00 44.75157 -93.89391 15694 ft 346 kts 68°
2026-05-07 21:00 44.75878 -93.86168 15320 ft 344 kts 68°
2026-05-07 21:00 44.76596 -93.82970 14930 ft 342 kts 68°
2026-05-07 21:01 44.77310 -93.79788 14591 ft 338 kts 68°
2026-05-07 21:01 44.78006 -93.76662 14390 ft 330 kts 68°
2026-05-07 21:01 44.78679 -93.73618 14269 ft 325 kts 68°
2026-05-07 21:01 44.79354 -93.70577 14012 ft 327 kts 68°
2026-05-07 21:02 44.80038 -93.67511 13601 ft 327 kts 69°
2026-05-07 21:02 44.80700 -93.64513 13282 ft 324 kts 69°
2026-05-07 21:02 44.81366 -93.61491 12884 ft 321 kts 69°
2026-05-07 21:02 44.82022 -93.58513 12181 ft 316 kts 69°
2026-05-07 21:03 44.82673 -93.55562 11649 ft 317 kts 69°
2026-05-07 21:03 44.83321 -93.52606 11319 ft 313 kts 69°
2026-05-07 21:03 44.83747 -93.50665 10963 ft 314 kts 69°
2026-05-07 21:03 44.84549 -93.46817 10290 ft 298 kts 77°
2026-05-07 21:04 44.84705 -93.44905 9962 ft 297 kts 88°
2026-05-07 21:04 44.84492 -93.42036 9658 ft 294 kts 103°
2026-05-07 21:04 44.83783 -93.39357 9330 ft 290 kts 119°
2026-05-07 21:04 44.82763 -93.36947 8756 ft 284 kts 122°
2026-05-07 21:05 44.81727 -93.34569 8390 ft 284 kts 122°
2026-05-07 21:05 44.80692 -93.32204 8298 ft 283 kts 122°
2026-05-07 21:05 44.79679 -93.29886 8176 ft 272 kts 122°
2026-05-07 21:05 44.78709 -93.27656 8052 ft 263 kts 122°
2026-05-07 21:06 44.77757 -93.25475 7990 ft 259 kts 122°
2026-05-07 21:06 44.76812 -93.23303 7997 ft 260 kts 122°
2026-05-07 21:06 44.75846 -93.21158 8006 ft 260 kts 128°
2026-05-07 21:06 44.74681 -93.19226 8011 ft 259 kts 134°
2026-05-07 21:07 44.73458 -93.17371 8010 ft 258 kts 135°
2026-05-07 21:07 44.72236 -93.15535 7999 ft 258 kts 135°
2026-05-07 21:07 44.71021 -93.13710 8005 ft 259 kts 135°
2026-05-07 21:07 44.69791 -93.11861 8001 ft 258 kts 135°
2026-05-07 21:08 44.68565 -93.10017 7998 ft 258 kts 135°
2026-05-07 21:08 44.67335 -93.08166 7998 ft 258 kts 135°
2026-05-07 21:08 44.66107 -93.06318 8010 ft 258 kts 135°
2026-05-07 21:08 44.64882 -93.04471 8009 ft 259 kts 134°
2026-05-07 21:09 44.63652 -93.02618 8000 ft 258 kts 134°
2026-05-07 21:09 44.62425 -93.00768 7991 ft 258 kts 135°
2026-05-07 21:09 44.61217 -92.98945 7995 ft 258 kts 134°
2026-05-07 21:09 44.60269 -92.96818 7997 ft 259 kts 106°
2026-05-07 21:10 44.60162 -92.94321 7980 ft 259 kts 77°
2026-05-07 21:10 44.60890 -92.92033 7567 ft 258 kts 50°
2026-05-07 21:10 44.62118 -92.90228 7155 ft 254 kts 29°
2026-05-07 21:10 44.63686 -92.89121 6769 ft 252 kts 13°
2026-05-07 21:11 44.65393 -92.88998 6361 ft 244 kts 342°
2026-05-07 21:11 44.66925 -92.89971 5966 ft 243 kts 325°
2026-05-07 21:11 44.69749 -92.92461 5159 ft 230 kts 325°
2026-05-07 21:12 44.71078 -92.93631 4774 ft 223 kts 326°
2026-05-07 21:12 44.72381 -92.94779 4361 ft 221 kts 326°
2026-05-07 21:12 44.73680 -92.95928 4033 ft 220 kts 326°
2026-05-07 21:12 44.74938 -92.97040 4025 ft 208 kts 326°
2026-05-07 21:13 44.76125 -92.98089 4002 ft 202 kts 326°
2026-05-07 21:13 44.77312 -92.99142 3995 ft 201 kts 326°
2026-05-07 21:13 44.78475 -93.00231 3966 ft 201 kts 318°
2026-05-07 21:13 44.79345 -93.01712 3791 ft 192 kts 301°
2026-05-07 21:14 44.80021 -93.03263 3553 ft 180 kts 301°
2026-05-07 21:14 44.80641 -93.04685 3342 ft 160 kts 301°
2026-05-07 21:14 44.81188 -93.05940 3128 ft 145 kts 301°
2026-05-07 21:14 44.81707 -93.07131 2935 ft 141 kts 301°
2026-05-07 21:15 44.82215 -93.08298 2761 ft 140 kts 301°
2026-05-07 21:15 44.82722 -93.09460 2567 ft 139 kts 300°
2026-05-07 21:15 44.83223 -93.10611 2394 ft 139 kts 300°
2026-05-07 21:15 44.83731 -93.11779 2197 ft 141 kts 300°
2026-05-07 21:16 44.84246 -93.12966 2014 ft 143 kts 300°
2026-05-07 21:16 44.84766 -93.14160 1825 ft 143 kts 300°
2026-05-07 21:16 44.85284 -93.15353 1644 ft 143 kts 300°
2026-05-07 21:16 44.85798 -93.16536 1444 ft 140 kts 300°
2026-05-07 21:17 44.86307 -93.17709 1269 ft 141 kts 303°
2026-05-07 21:17 44.86815 -93.18876 1080 ft 140 kts 300°
2026-05-07 21:17 44.87325 -93.20053 880 ft 140 kts 301°
2026-05-07 21:17 44.87792 -93.21135 824 ft 92 kts 301°
2026-05-07 21:18 44.87943 -93.21485 822 ft 26 kts 301°
2026-05-07 21:18 44.88021 -93.21639 823 ft 12 kts 325°
2026-05-07 21:18 44.88071 -93.21643 822 ft 5 kts 19°
2026-05-07 21:18 44.88090 -93.21624 823 ft 2 kts 45°
2026-05-07 21:19 44.88099 -93.21597 825 ft 4 kts 73°
2026-05-07 21:19 44.88091 -93.21538 825 ft 8 kts 113°
2026-05-07 21:19 44.88056 -93.21449 823 ft 13 kts 121°
2026-05-07 21:19 44.88002 -93.21324 823 ft 17 kts 121°
2026-05-07 21:20 44.87932 -93.21168 825 ft 20 kts 122°
2026-05-07 21:20 44.87868 -93.21020 823 ft 13 kts 120°
2026-05-07 21:20 44.87839 -93.20908 826 ft 11 kts 74°
2026-05-07 21:20 44.87890 -93.20845 826 ft 10 kts 27°
2026-05-07 21:21 44.87946 -93.20808 825 ft 9 kts 24°
2026-05-07 21:21 44.87973 -93.20791 824 ft 2 kts 25°
2026-05-07 21:21 44.87975 -93.20790 825 ft 0 kts 25°